Flag for U.S.A. Weather past 2 weeks in Coeur d'Alene, Idaho, U.S.A.

Now
36 °F

Clear.


Feels Like: 28 °F
Forecast: 39 / 64 °F
Wind: 10 mph from East

Location: Coeur d'Alene Weather Reporting System


UV Index: 0 (Low)

Visibility: 10 mi


Pressure: 30.18 "Hg

Humidity: 81%

Dew point: 30 °F

Location of Coeur d'AleneLocation

Historic Weather in Coeur d'Alene

°F

Coeur d'Alene temperature yesterday

Maximum temperature yesterday: 55 °F (at 3:15 PM)
Minimum temperature yesterday: 36 °F (at 5:15 AM)
Average temperature yesterday: 46 °F

Past Weeks' High & Low Weather Summary

 TemperatureHumidityPressure
High70 °F (Apr 8, 1:55 PM)100% (Apr 20, 10:55 PM)30.36 "Hg (Apr 20, 10:55 PM)
Low28 °F (Apr 13, 5:35 AM)11% (Apr 9, 7:15 PM)29.74 "Hg (Apr 18, 2:15 AM)
Average47 °F59%30.04 "Hg
* Reported Apr 6 2:15 AM — Apr 21 2:35 AM, Coeur d'Alene, Weather by CustomWeather, © 2014

Note: Actual official high and low records may vary slightly from our data, if they occured in-between our weather recording intervals... More about our weather records

Advertising

Historic Weather Conditions — Data for Previous 24 hours

 ConditionsComfort  
Time TempWeatherWind HumidityBarometerVisibility
2:35 AM
Apr 21
36 °FClear.7 mph81%30.19 "Hg10 mi
2:15 AM37 °FClear.9 mph75%30.20 "Hg10 mi
1:55 AM37 °FClear.9 mph75%30.20 "Hg10 mi
1:35 AM36 °FClear.6 mph81%30.21 "Hg10 mi
1:15 AM37 °FClear.7 mph75%30.20 "Hg10 mi
12:55 AM37 °FClear.7 mph75%30.21 "Hg10 mi
12:35 AM37 °FClear.8 mph75%30.21 "Hg10 mi
12:15 AM37 °FClear.3 mph81%30.21 "Hg10 mi
11:55 PM
Apr 20
37 °FClear.No wind87%30.21 "Hg10 mi
11:35 PM36 °FClear.3 mph75%30.21 "Hg10 mi
11:15 PM37 °FClear.5 mph81%30.21 "Hg10 mi
10:55 PM37 °FClear.No wind100%30.21 "Hg10 mi
10:35 PM39 °FClear.5 mph70%30.21 "Hg10 mi
10:15 PM41 °FClear.5 mph61%30.22 "Hg10 mi
9:55 PM41 °FClear.6 mph66%30.22 "Hg10 mi
9:35 PM43 °FClear.No wind71%30.22 "Hg10 mi
9:15 PM39 °FClear.No wind70%30.22 "Hg10 mi
8:55 PM45 °FClear.3 mph61%30.22 "Hg10 mi
8:15 PM50 °FSunny.No wind47%30.21 "Hg10 mi
7:35 PM52 °FSunny.3 mph41%30.21 "Hg10 mi
7:15 PM54 °FSunny.3 mph41%30.21 "Hg10 mi
6:55 PM54 °FSunny.6 mph38%30.22 "Hg10 mi
6:35 PM55 °FSunny.7 mph36%30.22 "Hg10 mi
6:15 PM55 °FSunny.9 mph36%30.23 "Hg10 mi
5:55 PM55 °FSunny.9 mph38%30.23 "Hg10 mi
5:35 PM55 °FSunny.7 mph36%30.23 "Hg10 mi
5:15 PM55 °FSunny.8 mph36%30.24 "Hg10 mi
4:55 PM55 °FSunny.8 mph36%30.24 "Hg10 mi
4:35 PM55 °FPassing clouds.No wind36%30.24 "Hg10 mi
4:15 PM55 °FPassing clouds.No wind33%30.24 "Hg10 mi
3:55 PM55 °FPartly sunny.10 mph36%30.24 "Hg10 mi
3:35 PM55 °FPartly sunny.7 mph36%30.25 "Hg10 mi
3:15 PM55 °FPartly sunny.8 mph38%30.26 "Hg10 mi
2:55 PM54 °FPassing clouds.No wind38%30.26 "Hg10 mi
2:15 PM54 °FPartly sunny.7 mph41%30.26 "Hg10 mi
1:55 PM54 °FPartly sunny.No wind41%30.26 "Hg10 mi
1:35 PM54 °FPartly sunny.5 mph44%30.26 "Hg10 mi
1:15 PM54 °FPartly sunny.5 mph44%30.27 "Hg10 mi
12:55 PM52 °FMostly cloudy.6 mph44%30.27 "Hg10 mi
12:35 PM52 °FMostly cloudy.5 mph47%30.28 "Hg10 mi
12:15 PM48 °FMostly cloudy.No wind50%30.29 "Hg10 mi
11:55 AM48 °FMostly cloudy.3 mph58%30.29 "Hg10 mi
11:35 AM48 °FMostly cloudy.3 mph58%30.29 "Hg10 mi
11:15 AM46 °FOvercast.3 mph57%30.29 "Hg10 mi
10:55 AM46 °FPartly sunny.No wind57%30.29 "Hg10 mi
10:35 AM46 °FPassing clouds.7 mph62%30.29 "Hg10 mi
10:15 AM46 °FBroken clouds.5 mph53%30.28 "Hg10 mi
9:55 AM46 °FMostly cloudy.5 mph62%30.28 "Hg10 mi
9:35 AM45 °FMostly cloudy.9 mph66%30.28 "Hg10 mi
9:15 AM45 °FMostly cloudy.10 mph66%30.27 "Hg10 mi
8:55 AM45 °FMore clouds than sun.13 mph66%30.27 "Hg10 mi
8:35 AM43 °FMore clouds than sun.14 mph76%30.27 "Hg10 mi
7:55 AM43 °FPartly sunny.10 mph71%30.27 "Hg10 mi
7:35 AM39 °FPartly sunny.8 mph81%30.27 "Hg10 mi
7:15 AM37 °FScattered clouds.8 mph81%30.26 "Hg10 mi
6:55 AM37 °FScattered clouds.6 mph81%30.25 "Hg10 mi
6:35 AM36 °FPassing clouds.No wind81%30.24 "Hg10 mi
6:15 AM36 °FPassing clouds.No wind81%30.23 "Hg10 mi
5:55 AM37 °FPassing clouds.No wind75%30.22 "Hg10 mi
5:35 AM37 °FPassing clouds.No wind75%30.21 "Hg10 mi
5:15 AM36 °FClear.3 mph81%30.20 "Hg10 mi
4:55 AM37 °FPassing clouds.5 mph75%30.19 "Hg10 mi
4:35 AM39 °FClear.10 mph70%30.19 "Hg10 mi
4:15 AM37 °FClear.8 mph75%30.18 "Hg10 mi
3:55 AM39 °FClear.14 mph81%30.17 "Hg10 mi
3:35 AM37 °FPassing clouds.9 mph75%30.16 "Hg10 mi
3:15 AM39 °FClear.9 mph75%30.15 "Hg10 mi
Weather by CustomWeather, © 2014

See weather overview